DLH5TN LGKR-EDDM

Flight info

Callsign DLH5TN
Flight time N/A
Altitude 34000
Route OLGAT DCT ABADI DCT CRAYE DCT GISAM DCT ORAKA DCT SPL DCT ALIVO DCT PENEP DCT RASTA DCT REDBU Q112 NAPSA NAPSA1B
Aircraft A321/M-SDE3FGHIRWY/LB1

Departure

Time N/A
Airport Corfu Ioannis Kapodistrias International Airport (LGKR)

Arrival

Time 2026-05-06 17:36
Airport Munich Airport (EDDM)
Time Latitude Longitude Altitude Speed Heading
2026-05-06 16:21 41.36753 18.22289 33488 ft 433 kts 328°
2026-05-06 16:21 41.39426 18.20438 33699 ft 433 kts 328°
2026-05-06 16:21 41.42103 18.18583 33912 ft 432 kts 328°
2026-05-06 16:21 41.44780 18.16727 34023 ft 432 kts 328°
2026-05-06 16:22 41.50057 18.13049 34037 ft 428 kts 325°
2026-05-06 16:22 41.55039 18.08730 34044 ft 426 kts 322°
2026-05-06 16:23 41.59950 18.04360 34045 ft 426 kts 322°
2026-05-06 16:23 41.64895 17.99941 34024 ft 427 kts 322°
2026-05-06 16:24 41.69862 17.95531 34036 ft 428 kts 322°
2026-05-06 16:24 41.74799 17.91141 34044 ft 428 kts 322°
2026-05-06 16:25 41.79769 17.86711 34045 ft 428 kts 322°
2026-05-06 16:25 41.84732 17.82266 34057 ft 429 kts 321°
2026-05-06 16:26 41.89693 17.77804 34058 ft 430 kts 321°
2026-05-06 16:26 41.94675 17.73337 34040 ft 430 kts 321°
2026-05-06 16:27 41.99636 17.68913 34049 ft 431 kts 321°
2026-05-06 16:27 42.04654 17.64428 34047 ft 432 kts 321°
2026-05-06 16:28 42.09644 17.59966 34046 ft 433 kts 321°
2026-05-06 16:28 42.14672 17.55447 34038 ft 434 kts 321°
2026-05-06 16:29 42.19674 17.50926 34038 ft 434 kts 321°
2026-05-06 16:29 42.24720 17.46373 34042 ft 435 kts 321°
2026-05-06 16:30 42.28878 17.42621 34041 ft 435 kts 321°
2026-05-06 16:30 42.34768 17.37295 34049 ft 435 kts 321°
2026-05-06 16:31 42.39774 17.32754 34040 ft 435 kts 321°
2026-05-06 16:31 42.44818 17.28167 34043 ft 435 kts 321°
2026-05-06 16:32 42.49848 17.23583 34043 ft 435 kts 321°
2026-05-06 16:32 42.54833 17.19019 34051 ft 435 kts 321°
2026-05-06 16:33 42.59866 17.14405 34044 ft 434 kts 321°
2026-05-06 16:34 42.67375 17.07508 34044 ft 434 kts 321°
2026-05-06 16:34 42.72369 17.02897 34048 ft 434 kts 321°
2026-05-06 16:35 42.77340 16.98304 34049 ft 434 kts 321°
2026-05-06 16:35 42.82352 16.93665 34050 ft 434 kts 321°
2026-05-06 16:36 42.87348 16.89039 34037 ft 434 kts 321°
2026-05-06 16:36 42.92326 16.84427 34039 ft 435 kts 321°
2026-05-06 16:37 42.97344 16.79764 34040 ft 434 kts 320°
2026-05-06 16:37 43.02316 16.75110 34060 ft 435 kts 320°
2026-05-06 16:38 43.07322 16.70423 34063 ft 435 kts 320°
2026-05-06 16:38 43.12328 16.65731 34072 ft 436 kts 320°
2026-05-06 16:38 43.14798 16.63410 34177 ft 435 kts 320°
2026-05-06 16:39 43.17300 16.61060 34371 ft 435 kts 320°
2026-05-06 16:39 43.19797 16.58716 34567 ft 435 kts 320°
2026-05-06 16:39 43.22301 16.56370 34769 ft 434 kts 320°
2026-05-06 16:39 43.24775 16.54050 34964 ft 433 kts 320°
2026-05-06 16:40 43.27263 16.51712 35160 ft 432 kts 319°
2026-05-06 16:40 43.29739 16.49378 35359 ft 432 kts 319°
2026-05-06 16:40 43.32216 16.47036 35556 ft 432 kts 319°
2026-05-06 16:40 43.34654 16.44728 35754 ft 431 kts 319°
2026-05-06 16:41 43.37124 16.42389 35942 ft 430 kts 319°
2026-05-06 16:41 43.42079 16.37683 36028 ft 433 kts 319°
2026-05-06 16:42 43.47075 16.32913 36030 ft 441 kts 319°
2026-05-06 16:42 43.52343 16.28434 36032 ft 452 kts 325°
2026-05-06 16:43 43.57933 16.24293 36031 ft 458 kts 326°
2026-05-06 16:43 43.63564 16.20118 36008 ft 462 kts 326°
2026-05-06 16:44 43.69223 16.15907 36009 ft 462 kts 326°
2026-05-06 16:44 43.74881 16.11677 36006 ft 462 kts 325°
2026-05-06 16:45 43.80542 16.07422 36008 ft 462 kts 325°
2026-05-06 16:45 43.86164 16.03192 36012 ft 462 kts 325°
2026-05-06 16:46 43.91805 15.98940 36006 ft 460 kts 324°
2026-05-06 16:46 43.97449 15.94689 35994 ft 461 kts 324°
2026-05-06 16:47 44.03092 15.90418 36002 ft 461 kts 324°
2026-05-06 16:47 44.08692 15.86167 36020 ft 462 kts 324°
2026-05-06 16:48 44.14327 15.81877 36021 ft 462 kts 324°
2026-05-06 16:48 44.19971 15.77579 36041 ft 462 kts 324°
2026-05-06 16:49 44.25624 15.73268 36036 ft 463 kts 324°
2026-05-06 16:49 44.31274 15.68950 36024 ft 463 kts 324°
2026-05-06 16:50 44.36902 15.64622 36020 ft 463 kts 324°
2026-05-06 16:50 44.42546 15.60270 36015 ft 463 kts 324°
2026-05-06 16:51 44.48179 15.55935 36034 ft 464 kts 325°
2026-05-06 16:51 44.53852 15.51570 36025 ft 465 kts 326°
2026-05-06 16:52 44.59527 15.47181 36008 ft 466 kts 325°
2026-05-06 16:52 44.65208 15.42773 35993 ft 466 kts 325°
2026-05-06 16:53 44.70884 15.38356 35995 ft 467 kts 325°
2026-05-06 16:53 44.76569 15.33918 35999 ft 467 kts 326°
2026-05-06 16:54 44.82218 15.29508 35983 ft 468 kts 326°
2026-05-06 16:54 44.87912 15.25053 35980 ft 468 kts 326°
2026-05-06 16:55 44.93628 15.20581 35973 ft 469 kts 326°
2026-05-06 16:55 44.98376 15.16852 35980 ft 469 kts 326°
2026-05-06 16:56 45.05018 15.11626 35977 ft 469 kts 326°
2026-05-06 16:56 45.09760 15.07880 35971 ft 468 kts 326°
2026-05-06 16:57 45.16383 15.02627 35967 ft 468 kts 326°
2026-05-06 16:57 45.21109 14.98880 35953 ft 466 kts 325°
2026-05-06 16:58 45.26780 14.94376 35957 ft 466 kts 325°
2026-05-06 16:58 45.32459 14.89849 35959 ft 467 kts 325°
2026-05-06 16:59 45.38102 14.85336 35957 ft 468 kts 326°
2026-05-06 16:59 45.43783 14.80779 35979 ft 468 kts 325°
2026-05-06 17:00 45.49477 14.76208 35967 ft 469 kts 325°
2026-05-06 17:00 45.55174 14.71726 35965 ft 471 kts 327°
2026-05-06 17:01 45.61067 14.67517 35973 ft 473 kts 328°
2026-05-06 17:01 45.66995 14.63413 35969 ft 473 kts 329°
2026-05-06 17:02 45.72871 14.59246 35964 ft 473 kts 328°
2026-05-06 17:02 45.78754 14.54989 35965 ft 474 kts 328°
2026-05-06 17:03 45.84652 14.50715 35953 ft 475 kts 328°
2026-05-06 17:03 45.90519 14.46467 35953 ft 475 kts 328°
2026-05-06 17:04 45.96423 14.42184 35959 ft 476 kts 328°
2026-05-06 17:04 46.02355 14.37883 35956 ft 476 kts 328°
2026-05-06 17:05 46.08247 14.33587 35945 ft 477 kts 328°
2026-05-06 17:05 46.14087 14.29325 35769 ft 460 kts 328°
2026-05-06 17:05 46.16971 14.27323 35488 ft 457 kts 329°
2026-05-06 17:06 46.19863 14.25414 35213 ft 457 kts 330°
2026-05-06 17:06 46.22739 14.23570 34941 ft 457 kts 330°
2026-05-06 17:06 46.25657 14.21717 34669 ft 458 kts 330°
2026-05-06 17:06 46.28583 14.19846 34412 ft 458 kts 330°
2026-05-06 17:07 46.31491 14.17960 34202 ft 458 kts 330°
2026-05-06 17:07 46.34407 14.16045 33980 ft 458 kts 330°
2026-05-06 17:07 46.37275 14.14140 33774 ft 459 kts 329°
2026-05-06 17:07 46.40181 14.12198 33523 ft 460 kts 329°
2026-05-06 17:08 46.43093 14.10255 33246 ft 461 kts 329°
2026-05-06 17:08 46.46010 14.08314 33008 ft 461 kts 329°
2026-05-06 17:08 46.48932 14.06370 32768 ft 461 kts 329°
2026-05-06 17:08 46.51853 14.04427 32531 ft 461 kts 329°
2026-05-06 17:09 46.54780 14.02484 32294 ft 462 kts 329°
2026-05-06 17:09 46.57675 14.00558 32078 ft 462 kts 329°
2026-05-06 17:09 46.60610 13.98604 31853 ft 462 kts 329°
2026-05-06 17:10 46.66462 13.94696 31859 ft 463 kts 329°
2026-05-06 17:10 46.72320 13.90781 31874 ft 463 kts 329°
2026-05-06 17:11 46.78148 13.86869 31861 ft 463 kts 329°
2026-05-06 17:11 46.84013 13.82911 31854 ft 463 kts 329°
2026-05-06 17:12 46.89875 13.78950 31850 ft 463 kts 329°
2026-05-06 17:12 46.95701 13.75006 31853 ft 463 kts 329°
2026-05-06 17:13 47.01493 13.71094 31843 ft 454 kts 329°
2026-05-06 17:13 47.07188 13.67229 31490 ft 452 kts 328°
2026-05-06 17:13 47.10049 13.65279 31183 ft 453 kts 328°
2026-05-06 17:14 47.12911 13.63326 30881 ft 452 kts 328°
2026-05-06 17:14 47.15760 13.61385 30557 ft 451 kts 328°
2026-05-06 17:14 47.18609 13.59443 30262 ft 448 kts 328°
2026-05-06 17:14 47.21432 13.57516 30006 ft 447 kts 328°
2026-05-06 17:15 47.24255 13.55579 29480 ft 448 kts 327°
2026-05-06 17:15 47.27080 13.53636 28791 ft 447 kts 328°
2026-05-06 17:15 47.29896 13.51699 28124 ft 445 kts 328°
2026-05-06 17:15 47.32668 13.49794 27473 ft 442 kts 328°
2026-05-06 17:16 47.35438 13.47894 26820 ft 436 kts 328°
2026-05-06 17:16 47.38191 13.46006 26187 ft 432 kts 328°
2026-05-06 17:16 47.40911 13.44135 25563 ft 430 kts 328°
2026-05-06 17:16 47.43616 13.42262 24967 ft 428 kts 328°
2026-05-06 17:17 47.46279 13.40415 24374 ft 427 kts 328°
2026-05-06 17:17 47.48944 13.38476 23783 ft 421 kts 323°
2026-05-06 17:17 47.51314 13.36024 23188 ft 412 kts 314°
2026-05-06 17:17 47.53522 13.33330 22488 ft 409 kts 314°
2026-05-06 17:18 47.55713 13.30670 21810 ft 406 kts 314°
2026-05-06 17:18 47.57900 13.28021 21168 ft 405 kts 315°
2026-05-06 17:18 47.60050 13.25420 20535 ft 403 kts 315°
2026-05-06 17:18 47.62221 13.22792 19909 ft 401 kts 314°
2026-05-06 17:19 47.64338 13.20228 19285 ft 383 kts 314°
2026-05-06 17:19 47.66367 13.17773 18737 ft 371 kts 314°
2026-05-06 17:19 47.68347 13.15362 18205 ft 366 kts 314°
2026-05-06 17:19 47.70312 13.12955 17625 ft 367 kts 314°
2026-05-06 17:20 47.72282 13.10533 17081 ft 367 kts 314°
2026-05-06 17:20 47.74226 13.08139 16465 ft 367 kts 314°
2026-05-06 17:20 47.76195 13.05724 15861 ft 367 kts 315°
2026-05-06 17:20 47.78165 13.03324 15347 ft 363 kts 315°
2026-05-06 17:21 47.80109 13.00957 14847 ft 359 kts 315°
2026-05-06 17:21 47.82036 12.98610 14287 ft 356 kts 315°
2026-05-06 17:21 47.83950 12.96277 13802 ft 353 kts 315°
2026-05-06 17:21 47.85821 12.93996 13322 ft 350 kts 315°
2026-05-06 17:22 47.87698 12.91703 12793 ft 346 kts 315°
2026-05-06 17:22 47.89548 12.89437 12272 ft 343 kts 315°
2026-05-06 17:22 47.91379 12.87184 11801 ft 338 kts 315°
2026-05-06 17:22 47.93174 12.84968 11537 ft 332 kts 315°
2026-05-06 17:23 47.94945 12.82770 11278 ft 331 kts 315°
2026-05-06 17:23 47.96696 12.80582 10986 ft 330 kts 316°
2026-05-06 17:23 47.98419 12.78303 10736 ft 331 kts 315°
2026-05-06 17:23 48.00125 12.75992 10492 ft 331 kts 315°
2026-05-06 17:24 48.01827 12.73676 10255 ft 330 kts 315°
2026-05-06 17:24 48.03501 12.71400 10009 ft 324 kts 315°
2026-05-06 17:24 48.05146 12.69167 9778 ft 314 kts 315°
2026-05-06 17:24 48.06736 12.67014 9613 ft 304 kts 315°
2026-05-06 17:25 48.08306 12.64887 9090 ft 305 kts 315°
2026-05-06 17:25 48.09887 12.62738 8520 ft 309 kts 315°
2026-05-06 17:25 48.11478 12.60560 7960 ft 311 kts 315°
2026-05-06 17:25 48.13077 12.58355 7391 ft 313 kts 315°
2026-05-06 17:26 48.14659 12.56153 6869 ft 315 kts 315°
2026-05-06 17:26 48.16259 12.53909 6381 ft 315 kts 315°
2026-05-06 17:26 48.17834 12.51687 6090 ft 307 kts 315°
2026-05-06 17:26 48.19372 12.49511 5791 ft 300 kts 315°
2026-05-06 17:27 48.20867 12.47393 5485 ft 292 kts 315°
2026-05-06 17:27 48.22326 12.45319 5184 ft 286 kts 315°
2026-05-06 17:27 48.23740 12.43305 5062 ft 278 kts 315°
2026-05-06 17:27 48.25145 12.41303 4975 ft 276 kts 315°
2026-05-06 17:28 48.26478 12.39235 4972 ft 274 kts 303°
2026-05-06 17:28 48.27376 12.36729 4975 ft 273 kts 293°
2026-05-06 17:28 48.28177 12.34191 4973 ft 273 kts 293°
2026-05-06 17:28 48.28990 12.31612 4974 ft 273 kts 293°
2026-05-06 17:29 48.29798 12.29047 4979 ft 273 kts 293°
2026-05-06 17:29 48.30612 12.26463 4906 ft 273 kts 294°
2026-05-06 17:29 48.31423 12.23884 4788 ft 272 kts 293°
2026-05-06 17:29 48.32230 12.21311 4658 ft 271 kts 293°
2026-05-06 17:30 48.33031 12.18752 4542 ft 270 kts 294°
2026-05-06 17:30 48.33815 12.16249 4419 ft 258 kts 293°
2026-05-06 17:30 48.34562 12.13867 4294 ft 247 kts 292°
2026-05-06 17:30 48.35288 12.11544 4192 ft 241 kts 293°
2026-05-06 17:31 48.35963 12.09389 4087 ft 218 kts 292°
2026-05-06 17:31 48.36370 12.07314 4031 ft 194 kts 275°
2026-05-06 17:31 48.36351 12.05376 4041 ft 185 kts 262°
2026-05-06 17:31 48.36210 12.03478 4032 ft 181 kts 263°
2026-05-06 17:32 48.36071 12.01609 4034 ft 179 kts 263°
2026-05-06 17:32 48.35932 11.99743 3944 ft 179 kts 263°
2026-05-06 17:32 48.35794 11.97896 3750 ft 177 kts 263°
2026-05-06 17:32 48.35657 11.96055 3530 ft 175 kts 263°
2026-05-06 17:33 48.35528 11.94339 3320 ft 156 kts 263°
2026-05-06 17:33 48.35410 11.92766 3119 ft 148 kts 263°
2026-05-06 17:33 48.35296 11.91251 2926 ft 145 kts 263°
2026-05-06 17:33 48.35183 11.89750 2731 ft 144 kts 262°
2026-05-06 17:34 48.35069 11.88254 2528 ft 143 kts 262°
2026-05-06 17:34 48.34958 11.86774 2345 ft 142 kts 262°
2026-05-06 17:34 48.34849 11.85293 2141 ft 142 kts 262°
2026-05-06 17:34 48.34741 11.83833 1962 ft 142 kts 260°
2026-05-06 17:35 48.34619 11.82359 1767 ft 141 kts 262°
2026-05-06 17:35 48.34513 11.80893 1581 ft 141 kts 261°
2026-05-06 17:35 48.34408 11.79464 1476 ft 127 kts 263°
2026-05-06 17:36 48.34337 11.77915 1476 ft 38 kts 294°
2026-05-06 17:36 48.34439 11.77566 1478 ft 33 kts 293°
2026-05-06 17:36 48.34559 11.77433 1480 ft 22 kts 351°
2026-05-06 17:36 48.34633 11.77513 1481 ft 13 kts 77°
2026-05-06 17:37 48.34646 11.77680 1481 ft 20 kts 85°
2026-05-06 17:37 48.34663 11.77919 1485 ft 26 kts 84°
2026-05-06 17:37 48.34686 11.78208 1477 ft 28 kts 83°
2026-05-06 17:37 48.34710 11.78507 1476 ft 29 kts 83°
2026-05-06 17:38 48.34734 11.78813 1483 ft 30 kts 83°
2026-05-06 17:38 48.34757 11.79120 1485 ft 30 kts 84°
2026-05-06 17:38 48.34777 11.79385 1481 ft 21 kts 83°
2026-05-06 17:38 48.34801 11.79534 1475 ft 14 kts 52°
2026-05-06 17:39 48.34874 11.79556 1473 ft 1 kts 353°
2026-05-06 17:39 48.34896 11.79552 1481 ft 6 kts 352°
2026-05-06 17:39 48.34968 11.79538 1485 ft 14 kts 354°
2026-05-06 17:39 48.35073 11.79520 1476 ft 17 kts 353°
2026-05-06 17:40 48.35152 11.79507 1482 ft 18 kts 354°
2026-05-06 17:40 48.35277 11.79485 1485 ft 19 kts 353°
2026-05-06 17:40 48.35455 11.79455 1484 ft 20 kts 353°
2026-05-06 17:40 48.35533 11.79440 1476 ft 8 kts 353°
2026-05-06 17:41 48.35580 11.79430 1474 ft 6 kts 346°
2026-05-06 17:41 48.35601 11.79384 1485 ft 6 kts 270°
2026-05-06 17:41 48.35597 11.79311 1480 ft 8 kts 263°
2026-05-06 17:41 48.35595 11.79294 1483 ft 0 kts 262°